| time (UTC) | temp F | wind direction | speed knots | gust knots | rain 1hr in | rain 24hr in | rain mn in | humidity % | barometer mb |
| 20260905024850 | 84 | 119 | 0.9 | 0.9 | 0.00 | 0.06 | 0.06 | 73 | 1015.2 |
| 20260905024344 | 84 | 114 | 4.3 | 5.2 | 0.00 | 0.06 | 0.06 | 72 | 1015.5 |
| 20260905023840 | 84 | 110 | 3.5 | 3.5 | 0.00 | 0.06 | 0.06 | 72 | 1015.3 |
| 20260905023335 | 84 | 126 | 2.6 | 2.6 | 0.00 | 0.06 | 0.06 | 72 | 1015.4 |
| 20260905022833 | 84 | 127 | 1.7 | 1.7 | 0.00 | 0.06 | 0.06 | 72 | 1015.2 |
| 20260905022329 | 84 | 87 | 3.5 | 3.5 | 0.00 | 0.06 | 0.06 | 72 | 1015.0 |
| 20260905021825 | 85 | 92 | 1.7 | 2.6 | 0.00 | 0.06 | 0.06 | 71 | 1015.2 |
| 20260905021320 | 84 | 115 | 3.5 | 3.5 | 0.00 | 0.06 | 0.06 | 72 | 1015.0 |
| 20260905020820 | 85 | 113 | 0.9 | 1.7 | 0.00 | 0.06 | 0.06 | 72 | 1015.1 |
| 20260905020315 | 85 | 190 | 3.5 | 3.5 | 0.00 | 0.06 | 0.06 | 71 | 1014.9 |
| 20260905015813 | 85 | 97 | 0.9 | 1.7 | 0.00 | 0.06 | 0.06 | 71 | 1014.9 |
| 20260905015308 | 85 | 171 | 4.3 | 5.2 | 0.00 | 0.06 | 0.06 | 71 | 1015.0 |
| 20260905014807 | 85 | 96 | 3.5 | 5.2 | 0.00 | 0.06 | 0.06 | 71 | 1015.0 |
| 20260905014303 | 85 | 97 | 3.5 | 5.2 | 0.00 | 0.06 | 0.06 | 71 | 1014.8 |
| 20260905013758 | 85 | 131 | 2.6 | 5.2 | 0.00 | 0.06 | 0.06 | 71 | 1014.8 |
| 20260905013254 | 85 | 115 | 2.6 | 2.6 | 0.00 | 0.06 | 0.06 | 71 | 1014.8 |
| 20260905012749 | 85 | 96 | 5.2 | 7.8 | 0.00 | 0.06 | 0.06 | 70 | 1014.8 |
| 20260905012245 | 85 | 120 | 2.6 | 3.5 | 0.00 | 0.06 | 0.06 | 71 | 1014.6 |
| 20260905011736 | 85 | 100 | 2.6 | 3.5 | 0.00 | 0.06 | 0.06 | 71 | 1014.5 |
| 20260905011226 | 85 | 113 | 3.5 | 3.5 | 0.00 | 0.06 | 0.06 | 72 | 1014.7 |
| 20260905010726 | 85 | 87 | 0.9 | 0.9 | 0.00 | 0.06 | 0.06 | 74 | 1014.5 |
| 20260905010221 | 85 | 62 | 2.6 | 2.6 | 0.00 | 0.06 | 0.06 | 74 | 1014.4 |
| 20260905005718 | 85 | 88 | 5.2 | 6.1 | 0.00 | 0.06 | 0.06 | 74 | 1014.4 |
| 20260905005213 | 85 | 135 | 1.7 | 1.7 | 0.00 | 0.06 | 0.06 | 73 | 1014.5 |
| 20260905004707 | 85 | 105 | 4.3 | 6.1 | 0.00 | 0.06 | 0.06 | 73 | 1014.3 |
| 20260905004203 | 85 | 112 | 0.9 | 1.7 | 0.00 | 0.06 | 0.06 | 74 | 1014.4 |
| 20260905003658 | 85 | 78 | 4.3 | 5.2 | 0.00 | 0.06 | 0.06 | 73 | 1014.2 |
| 20260905003154 | 86 | 85 | 4.3 | 6.1 | 0.00 | 0.06 | 0.06 | 72 | 1014.3 |
| 20260905002649 | 86 | 78 | 2.6 | 2.6 | 0.00 | 0.06 | 0.06 | 72 | 1014.2 |
| 20260905002148 | 86 | 45 | 0.9 | 0.9 | 0.00 | 0.06 | 0.06 | 72 | 1014.0 |
| 20260905001644 | 86 | 96 | 2.6 | 2.6 | 0.00 | 0.06 | 0.06 | 72 | 1013.9 |
| 20260905001143 | 86 | 83 | 2.6 | 3.5 | 0.00 | 0.06 | 0.06 | 72 | 1013.9 |
| 20260905000638 | 86 | 81 | 6.1 | 7.8 | 0.00 | 0.06 | 0.06 | 71 | 1014.2 |
| 20260905000134 | 86 | 51 | 2.6 | 3.5 | 0.00 | 0.06 | 0.06 | 71 | 1014.1 |
| 20260904235633 | 86 | 103 | 5.2 | 6.1 | 0.00 | 0.06 | 0.06 | 71 | 1014.1 |
| 20260904235133 | 86 | 62 | 4.3 | 7.0 | 0.00 | 0.06 | 0.06 | 72 | 1014.1 |
| 20260904234628 | 86 | 99 | 1.7 | 2.6 | 0.00 | 0.06 | 0.06 | 72 | 1014.0 |
| 20260904234124 | 86 | 101 | 2.6 | 7.8 | 0.00 | 0.06 | 0.06 | 72 | 1014.0 |
| 20260904233619 | 85 | 92 | 5.2 | 7.0 | 0.00 | 0.06 | 0.06 | 72 | 1014.1 |
| 20260904233115 | 84 | 111 | 4.3 | 6.1 | 0.00 | 0.06 | 0.06 | 73 | 1014.0 |
| 20260904232612 | 84 | 48 | 4.3 | 5.2 | 0.00 | 0.06 | 0.06 | 73 | 1013.9 |
| 20260904232108 | 83 | 88 | 4.3 | 6.1 | 0.00 | 0.06 | 0.06 | 75 | 1013.9 |
| 20260904231604 | 83 | 89 | 5.2 | 6.1 | 0.00 | 0.06 | 0.06 | 73 | 1014.1 |
| 20260904231104 | 83 | 92 | 7.0 | 8.7 | 0.00 | 0.06 | 0.06 | 73 | 1014.0 |
| 20260904230603 | 84 | 36 | 3.5 | 6.1 | 0.00 | 0.06 | 0.06 | 71 | 1014.0 |
| 20260904230054 | 84 | 105 | 3.5 | 6.1 | 0.00 | 0.06 | 0.06 | 69 | 1014.1 |
| 20260904225551 | 85 | 60 | 7.0 | 9.6 | 0.00 | 0.06 | 0.06 | 66 | 1014.0 |
| 20260904225046 | 86 | 88 | 7.0 | 13.0 | 0.00 | 0.06 | 0.06 | 67 | 1013.9 |
| 20260904224541 | 87 | 103 | 11.3 | 16.5 | 0.00 | 0.06 | 0.06 | 66 | 1014.0 |
| 20260904224041 | 90 | 107 | 3.5 | 5.2 | 0.00 | 0.06 | 0.06 | 60 | 1014.1 |
| 20260904223539 | 93 | 105 | 5.2 | 6.1 | 0.00 | 0.06 | 0.06 | 51 | 1014.0 |
| 20260904223036 | 93 | 176 | 4.3 | 6.1 | 0.00 | 0.06 | 0.06 | 50 | 1013.8 |
| 20260904222531 | 92 | 172 | 2.6 | 3.5 | 0.00 | 0.06 | 0.06 | 51 | 1014.1 |
| 20260904222026 | 92 | 163 | 6.1 | 7.8 | 0.00 | 0.06 | 0.06 | 51 | 1013.8 |
| 20260904221520 | 93 | 154 | 7.0 | 8.7 | 0.00 | 0.06 | 0.06 | 53 | 1013.7 |
| 20260904221015 | 92 | 204 | 7.8 | 9.6 | 0.00 | 0.06 | 0.06 | 53 | 1013.8 |
| 20260904220515 | 92 | 108 | 5.2 | 7.0 | 0.00 | 0.06 | 0.06 | 55 | 1013.9 |
| 20260904220011 | 93 | 133 | 7.8 | 7.8 | 0.00 | 0.06 | 0.06 | 54 | 1014.1 |
| 20260904215505 | 93 | 164 | 5.2 | 7.8 | 0.00 | 0.06 | 0.06 | 52 | 1013.9 |
| 20260904215001 | 92 | 154 | 5.2 | 6.1 | 0.00 | 0.06 | 0.06 | 52 | 1014.0 |
| 20260904214456 | 93 | 154 | 1.7 | 3.5 | 0.00 | 0.06 | 0.06 | 51 | 1013.9 |
| 20260904213951 | 93 | 196 | 3.5 | 5.2 | 0.00 | 0.06 | 0.06 | 50 | 1014.3 |
| 20260904213449 | 93 | 72 | 2.6 | 5.2 | 0.00 | 0.06 | 0.06 | 48 | 1014.4 |
| 20260904212946 | 93 | 167 | 6.1 | 7.8 | 0.00 | 0.06 | 0.06 | 49 | 1014.3 |
| 20260904212446 | 92 | 71 | 4.3 | 7.0 | 0.00 | 0.06 | 0.06 | 50 | 1014.3 |
| 20260904211940 | 93 | 171 | 6.1 | 7.0 | 0.00 | 0.06 | 0.06 | 49 | 1014.6 |
| 20260904211435 | 93 | 118 | 4.3 | 6.1 | 0.00 | 0.06 | 0.06 | 49 | 1014.4 |
| 20260904210931 | 92 | 179 | 3.5 | 3.5 | 0.00 | 0.06 | 0.06 | 51 | 1014.6 |
| 20260904210430 | 90 | 211 | 0.9 | 1.7 | 0.00 | 0.06 | 0.06 | 54 | 1014.4 |
| 20260904205926 | 91 | 145 | 5.2 | 6.1 | 0.00 | 0.06 | 0.06 | 53 | 1014.7 |
| 20260904205421 | 91 | 101 | 3.5 | 5.2 | 0.00 | 0.06 | 0.06 | 51 | 1014.7 |
| 20260904204919 | 91 | 152 | 3.5 | 5.2 | 0.00 | 0.06 | 0.06 | 55 | 1014.9 |
| 20260904204419 | 90 | 207 | 3.5 | 5.2 | 0.00 | 0.06 | 0.06 | 54 | 1014.9 |
| 20260904203915 | 90 | 192 | 4.3 | 5.2 | 0.00 | 0.06 | 0.06 | 55 | 1015.1 |
| 20260904203411 | 91 | 144 | 6.1 | 7.8 | 0.00 | 0.06 | 0.06 | 54 | 1015.0 |
| 20260904202906 | 91 | 202 | 3.5 | 3.5 | 0.00 | 0.06 | 0.06 | 51 | 1015.3 |
| 20260904202403 | 90 | 191 | 6.1 | 7.0 | 0.00 | 0.06 | 0.06 | 53 | 1015.3 |
| 20260904201858 | 90 | 144 | 1.7 | 1.7 | 0.00 | 0.06 | 0.06 | 53 | 1015.3 |
| 20260904201354 | 91 | 197 | 3.5 | 3.5 | 0.00 | 0.06 | 0.06 | 54 | 1015.1 |
| 20260904200848 | 91 | 111 | 3.5 | 5.2 | 0.00 | 0.06 | 0.06 | 56 | 1015.3 |
| 20260904200347 | 89 | 170 | 1.7 | 1.7 | 0.00 | 0.06 | 0.06 | 57 | 1015.4 |
| 20260904195841 | 90 | 135 | 8.7 | 9.6 | 0.00 | 0.06 | 0.06 | 57 | 1015.5 |
| 20260904195340 | 91 | 136 | 7.8 | 7.8 | 0.00 | 0.06 | 0.06 | 56 | 1015.5 |
| 20260904194835 | 90 | 96 | 2.6 | 3.5 | 0.00 | 0.06 | 0.06 | 53 | 1015.5 |
| 20260904194329 | 89 | 210 | 4.3 | 6.1 | 0.00 | 0.06 | 0.06 | 56 | 1015.5 |
| 20260904193824 | 89 | 174 | 5.2 | 7.0 | 0.00 | 0.06 | 0.06 | 55 | 1015.7 |
| 20260904193320 | 89 | 159 | 6.1 | 7.8 | 0.00 | 0.06 | 0.06 | 53 | 1015.8 |
| 20260904192815 | 88 | 251 | 5.2 | 6.1 | 0.00 | 0.06 | 0.06 | 56 | 1015.7 |
| 20260904192310 | 88 | 209 | 6.1 | 7.0 | 0.00 | 0.06 | 0.06 | 58 | 1015.9 |
| 20260904191807 | 89 | 148 | 6.1 | 7.0 | 0.00 | 0.06 | 0.06 | 56 | 1015.8 |
| 20260904191303 | 87 | 151 | 3.5 | 5.2 | 0.00 | 0.06 | 0.06 | 58 | 1016.0 |
| 20260904190759 | 88 | 184 | 9.6 | 12.2 | 0.00 | 0.06 | 0.06 | 56 | 1016.0 |
| 20260904190255 | 87 | 148 | 6.1 | 8.7 | 0.00 | 0.06 | 0.06 | 57 | 1016.2 |
| 20260904185751 | 87 | 101 | 3.5 | 5.2 | 0.00 | 0.06 | 0.06 | 55 | 1016.4 |
| 20260904185246 | 87 | 145 | 4.3 | 6.1 | 0.00 | 0.06 | 0.06 | 60 | 1016.3 |
| 20260904184745 | 87 | 176 | 7.0 | 7.8 | 0.00 | 0.06 | 0.06 | 62 | 1016.4 |
| 20260904184241 | 86 | 209 | 7.8 | 8.7 | 0.00 | 0.06 | 0.06 | 65 | 1016.5 |
| 20260904183736 | 86 | 197 | 6.1 | 7.8 | 0.00 | 0.06 | 0.06 | 68 | 1016.4 |
| 20260904183231 | 86 | 192 | 7.0 | 8.7 | 0.00 | 0.06 | 0.06 | 69 | 1016.5 |
| 20260904182726 | 86 | 228 | 5.2 | 6.1 | 0.00 | 0.06 | 0.06 | 70 | 1016.6 |
| 20260904182221 | 86 | 196 | 8.7 | 11.3 | 0.00 | 0.06 | 0.06 | 69 | 1016.5 |
| 20260904181717 | 86 | 215 | 3.5 | 5.2 | 0.00 | 0.06 | 0.06 | 68 | 1016.6 |
| 20260904181216 | 87 | 188 | 9.6 | 11.3 | 0.00 | 0.06 | 0.06 | 67 | 1016.6 |
| 20260904180712 | 87 | 153 | 5.2 | 7.0 | 0.00 | 0.06 | 0.06 | 70 | 1016.6 |
| 20260904180207 | 86 | 172 | 5.2 | 7.0 | 0.00 | 0.06 | 0.06 | 71 | 1016.8 |
| 20260904175706 | 85 | 132 | 1.7 | 2.6 | 0.00 | 0.06 | 0.06 | 73 | 1016.8 |
| 20260904175204 | 85 | 126 | 1.7 | 2.6 | 0.00 | 0.06 | 0.06 | 74 | 1016.9 |
| 20260904174659 | 84 | 136 | 5.2 | 6.1 | 0.00 | 0.06 | 0.06 | 75 | 1016.8 |
| 20260904174156 | 84 | 171 | 3.5 | 3.5 | 0.00 | 0.06 | 0.06 | 76 | 1016.9 |
| 20260904173651 | 85 | 134 | 3.5 | 3.5 | 0.00 | 0.06 | 0.06 | 76 | 1017.0 |
| 20260904173146 | 84 | 72 | 4.3 | 6.1 | 0.00 | 0.06 | 0.06 | 77 | 1016.9 |
| 20260904172642 | 85 | 148 | 4.3 | 6.1 | 0.00 | 0.06 | 0.06 | 77 | 1016.8 |
| 20260904172141 | 85 | 204 | 1.7 | 3.5 | 0.00 | 0.06 | 0.06 | 77 | 1017.0 |
| 20260904171637 | 85 | 134 | 3.5 | 3.5 | 0.00 | 0.06 | 0.06 | 76 | 1016.7 |
| 20260904171132 | 84 | 121 | 4.3 | 5.2 | 0.00 | 0.06 | 0.06 | 76 | 1017.0 |
| 20260904170627 | 84 | 208 | 3.5 | 5.2 | 0.00 | 0.06 | 0.06 | 76 | 1017.0 |
| 20260904170123 | 84 | 162 | 3.5 | 3.5 | 0.00 | 0.06 | 0.06 | 77 | 1017.1 |
| 20260904165622 | 84 | 129 | 3.5 | 3.5 | 0.00 | 0.06 | 0.06 | 77 | 1017.1 |
| 20260904165116 | 84 | 138 | 2.6 | 2.6 | 0.00 | 0.06 | 0.06 | 77 | 1017.2 |
| 20260904164616 | 84 | 130 | 2.6 | 2.6 | 0.00 | 0.06 | 0.06 | 77 | 1017.1 |
| 20260904164106 | 84 | 155 | 3.5 | 3.5 | 0.00 | 0.06 | 0.06 | 78 | 1017.0 |
| 20260904163601 | 84 | 203 | 1.7 | 2.6 | 0.00 | 0.06 | 0.06 | 78 | 1017.0 |
| 20260904163056 | 84 | 190 | 3.5 | 3.5 | 0.00 | 0.06 | 0.06 | 78 | 1017.1 |
| 20260904162556 | 84 | 213 | 4.3 | 6.1 | 0.00 | 0.06 | 0.06 | 79 | 1017.2 |
| 20260904162052 | 83 | 167 | 0.9 | 1.7 | 0.00 | 0.06 | 0.06 | 81 | 1017.0 |
| 20260904161546 | 83 | 257 | 4.3 | 5.2 | 0.00 | 0.06 | 0.06 | 80 | 1017.0 |
| 20260904161042 | 83 | 188 | 5.2 | 6.1 | 0.00 | 0.06 | 0.06 | 81 | 1016.8 |
| 20260904160537 | 82 | 226 | 3.5 | 5.2 | 0.00 | 0.06 | 0.06 | 82 | 1017.1 |
| 20260904160033 | 82 | 198 | 3.5 | 3.5 | 0.00 | 0.06 | 0.06 | 82 | 1016.8 |
| 20260904155532 | 82 | 181 | 3.5 | 3.5 | 0.00 | 0.06 | 0.06 | 83 | 1017.0 |
| 20260904155026 | 82 | 206 | 4.3 | 6.1 | 0.00 | 0.06 | 0.06 | 83 | 1016.8 |
| 20260904154520 | 82 | 234 | 3.5 | 3.5 | 0.00 | 0.06 | 0.06 | 83 | 1016.8 |
| 20260904154015 | 82 | 234 | 4.3 | 6.1 | 0.00 | 0.06 | 0.06 | 84 | 1016.7 |
| 20260904153515 | 82 | 206 | 6.1 | 7.0 | 0.00 | 0.06 | 0.06 | 84 | 1016.6 |
| 20260904153012 | 82 | 210 | 2.6 | 5.2 | 0.00 | 0.06 | 0.06 | 84 | 1016.7 |
| 20260904152507 | 82 | 181 | 4.3 | 6.1 | 0.00 | 0.06 | 0.06 | 84 | 1016.6 |
| 20260904152002 | 82 | 243 | 4.3 | 6.1 | 0.00 | 0.06 | 0.06 | 85 | 1016.5 |
| 20260904151456 | 82 | 232 | 3.5 | 5.2 | 0.00 | 0.06 | 0.06 | 85 | 1016.5 |
| 20260904150951 | 82 | 165 | 5.2 | 6.1 | 0.00 | 0.06 | 0.06 | 86 | 1016.4 |
| 20260904150446 | 82 | 212 | 5.2 | 7.0 | 0.00 | 0.06 | 0.06 | 87 | 1016.5 |
| 20260904145944 | 82 | 205 | 8.7 | 9.6 | 0.00 | 0.06 | 0.06 | 86 | 1016.2 |
| 20260904145440 | 81 | 228 | 7.0 | 9.6 | 0.00 | 0.06 | 0.06 | 88 | 1016.3 |
| 20260904144935 | 81 | 191 | 2.6 | 3.5 | 0.00 | 0.06 | 0.06 | 88 | 1016.4 |
| 20260904144431 | 80 | 225 | 1.7 | 1.7 | 0.00 | 0.06 | 0.06 | 90 | 1016.6 |
| 20260904143927 | 80 | 191 | 0.9 | 1.7 | 0.00 | 0.06 | 0.06 | 91 | 1016.3 |
| 20260904143423 | 80 | 205 | 6.1 | 7.0 | 0.00 | 0.06 | 0.06 | 91 | 1016.4 |
| 20260904142920 | 80 | 237 | 2.6 | 2.6 | 0.00 | 0.06 | 0.06 | 92 | 1016.5 |
| 20260904142415 | 80 | 203 | 2.6 | 2.6 | 0.00 | 0.06 | 0.06 | 92 | 1016.4 |
| 20260904141909 | 80 | 228 | 3.5 | 3.5 | 0.00 | 0.06 | 0.06 | 92 | 1016.4 |
| 20260904141404 | 80 | 223 | 1.7 | 1.7 | 0.00 | 0.06 | 0.06 | 93 | 1016.5 |
| 20260904140901 | 79 | 233 | 2.6 | 3.5 | 0.00 | 0.06 | 0.06 | 93 | 1016.4 |
| 20260904140355 | 79 | 207 | 2.6 | 3.5 | 0.00 | 0.06 | 0.06 | 94 | 1016.4 |
| 20260904135854 | 79 | 270 | 3.5 | 5.2 | 0.00 | 0.06 | 0.06 | 95 | 1016.2 |
| 20260904135349 | 79 | 274 | 1.7 | 2.6 | 0.00 | 0.06 | 0.06 | 96 | 1016.3 |
| 20260904134846 | 78 | 218 | 3.5 | 3.5 | 0.00 | 0.06 | 0.06 | 96 | 1016.3 |
| 20260904134345 | 78 | 193 | 1.7 | 1.7 | 0.00 | 0.06 | 0.06 | 96 | 1016.3 |
| 20260904133845 | 78 | 234 | 0.0 | 0.0 | 0.07 | 0.06 | 0.06 | 96 | 1016.2 |
| 20260904133340 | 78 | 203 | 0.9 | 0.9 | 0.24 | 0.06 | 0.06 | 96 | 1016.1 |
| 20260904132835 | 79 | 207 | 3.5 | 5.2 | 0.28 | 0.05 | 0.05 | 95 | 1016.0 |
| 20260904132330 | 79 | 211 | 6.1 | 7.8 | 0.17 | 0.03 | 0.03 | 94 | 1016.1 |
| 20260904131830 | 79 | 185 | 3.5 | 5.2 | 0.00 | 0.00 | 0.00 | 94 | 1016.1 |
| 20260904131325 | 79 | 213 | 5.2 | 7.0 | 0.00 | 0.00 | 0.00 | 93 | 1016.1 |
| 20260904130820 | 79 | 199 | 2.6 | 2.6 | 0.00 | 0.00 | 0.00 | 94 | 1016.3 |
| 20260904130319 | 79 | 205 | 2.6 | 2.6 | 0.00 | 0.00 | 0.00 | 94 | 1016.1 |
| 20260904125815 | 79 | 214 | 3.5 | 3.5 | 0.00 | 0.00 | 0.00 | 94 | 1016.2 |
| 20260904125311 | 79 | 214 | 2.6 | 2.6 | 0.00 | 0.00 | 0.00 | 94 | 1016.3 |
| 20260904124810 | 79 | 205 | 4.3 | 5.2 | 0.00 | 0.00 | 0.00 | 94 | 1016.2 |
| 20260904124307 | 79 | 179 | 2.6 | 3.5 | 0.00 | 0.00 | 0.00 | 93 | 1016.4 |
| 20260904123802 | 79 | 156 | 2.6 | 2.6 | 0.00 | 0.00 | 0.00 | 93 | 1016.2 |
| 20260904123257 | 79 | 124 | 0.9 | 1.7 | 0.00 | 0.00 | 0.00 | 93 | 1016.2 |
| 20260904122752 | 79 | 189 | 1.7 | 1.7 | 0.00 | 0.00 | 0.00 | 92 | 1016.2 |
| 20260904122251 | 79 | 160 | 2.6 | 2.6 | 0.00 | 0.00 | 0.00 | 92 | 1016.2 |
| 20260904121747 | 79 | 184 | 1.7 | 2.6 | 0.00 | 0.00 | 0.00 | 92 | 1016.0 |
| 20260904121243 | 79 | 157 | 3.5 | 5.2 | 0.00 | 0.00 | 0.00 | 92 | 1015.8 |
| 20260904120739 | 79 | 133 | 2.6 | 3.5 | 0.00 | 0.00 | 0.00 | 92 | 1015.8 |
| 20260904120235 | 79 | 104 | 1.7 | 2.6 | 0.00 | 0.00 | 0.00 | 91 | 1015.9 |
| 20260904115735 | 79 | 158 | 1.7 | 2.6 | 0.00 | 0.00 | 0.00 | 91 | 1015.8 |
| 20260904115229 | 79 | 183 | 1.7 | 2.6 | 0.00 | 0.00 | 0.00 | 91 | 1015.9 |
| 20260904114724 | 79 | 129 | 3.5 | 6.1 | 0.00 | 0.00 | 0.00 | 91 | 1015.6 |
| 20260904114219 | 79 | 143 | 1.7 | 2.6 | 0.00 | 0.00 | 0.00 | 91 | 1015.5 |
| 20260904113714 | 79 | 94 | 5.2 | 6.1 | 0.00 | 0.00 | 0.00 | 91 | 1015.6 |
| 20260904113213 | 79 | 154 | 3.5 | 6.1 | 0.00 | 0.00 | 0.00 | 91 | 1015.4 |
| 20260904112709 | 79 | 112 | 2.6 | 3.5 | 0.00 | 0.00 | 0.00 | 91 | 1015.3 |
| 20260904112204 | 79 | 73 | 2.6 | 2.6 | 0.00 | 0.00 | 0.00 | 91 | 1015.4 |
| 20260904111659 | 79 | 69 | 4.3 | 6.1 | 0.00 | 0.00 | 0.00 | 91 | 1015.3 |
| 20260904111154 | 79 | 113 | 3.5 | 5.2 | 0.00 | 0.00 | 0.00 | 90 | 1015.4 |
| 20260904110649 | 79 | 89 | 2.6 | 2.6 | 0.00 | 0.00 | 0.00 | 90 | 1015.2 |
| 20260904110143 | 79 | 111 | 3.5 | 5.2 | 0.00 | 0.00 | 0.00 | 90 | 1015.0 |
| 20260904105638 | 79 | 144 | 3.5 | 5.2 | 0.00 | 0.00 | 0.00 | 90 | 1015.3 |
| 20260904105133 | 79 | 117 | 2.6 | 3.5 | 0.00 | 0.00 | 0.00 | 90 | 1015.2 |
| 20260904104629 | 79 | 84 | 4.3 | 6.1 | 0.00 | 0.00 | 0.00 | 90 | 1015.1 |
| 20260904104124 | 79 | 91 | 1.7 | 3.5 | 0.00 | 0.00 | 0.00 | 89 | 1015.0 |
| 20260904103621 | 80 | 143 | 3.5 | 5.2 | 0.00 | 0.00 | 0.00 | 89 | 1015.0 |
| 20260904103116 | 80 | 135 | 5.2 | 6.1 | 0.00 | 0.00 | 0.00 | 89 | 1015.0 |
| 20260904102612 | 80 | 126 | 2.6 | 2.6 | 0.00 | 0.00 | 0.00 | 89 | 1015.2 |
| 20260904102107 | 80 | 119 | 2.6 | 2.6 | 0.00 | 0.00 | 0.00 | 89 | 1015.0 |
| 20260904101603 | 80 | 171 | 3.5 | 3.5 | 0.00 | 0.00 | 0.00 | 89 | 1015.0 |
| 20260904101059 | 80 | 200 | 3.5 | 6.1 | 0.00 | 0.00 | 0.00 | 88 | 1014.9 |
| 20260904100554 | 80 | 168 | 6.1 | 7.0 | 0.00 | 0.00 | 0.00 | 88 | 1014.9 |
| 20260904100049 | 80 | 91 | 2.6 | 3.5 | 0.00 | 0.00 | 0.00 | 88 | 1014.7 |
| 20260904095544 | 80 | 136 | 2.6 | 3.5 | 0.00 | 0.00 | 0.00 | 87 | 1014.9 |
| 20260904095039 | 80 | 145 | 3.5 | 3.5 | 0.00 | 0.00 | 0.00 | 87 | 1014.8 |
| 20260904094534 | 80 | 124 | 3.5 | 6.1 | 0.00 | 0.00 | 0.00 | 87 | 1014.8 |
| 20260904094029 | 80 | 162 | 3.5 | 3.5 | 0.00 | 0.00 | 0.00 | 86 | 1014.7 |
| 20260904093526 | 80 | 147 | 1.7 | 1.7 | 0.00 | 0.00 | 0.00 | 86 | 1014.7 |
| 20260904093026 | 80 | 180 | 4.3 | 5.2 | 0.00 | 0.00 | 0.00 | 86 | 1014.5 |
| 20260904092521 | 81 | 201 | 2.6 | 2.6 | 0.00 | 0.00 | 0.00 | 86 | 1014.7 |
| 20260904092018 | 81 | 178 | 4.3 | 5.2 | 0.00 | 0.00 | 0.00 | 86 | 1014.6 |
| 20260904091514 | 81 | 146 | 3.5 | 5.2 | 0.00 | 0.00 | 0.00 | 86 | 1014.8 |
| 20260904091013 | 81 | 204 | 5.2 | 7.8 | 0.00 | 0.00 | 0.00 | 86 | 1014.9 |
| 20260904090508 | 81 | 156 | 3.5 | 5.2 | 0.00 | 0.00 | 0.00 | 86 | 1014.8 |
| 20260904090004 | 81 | 170 | 4.3 | 5.2 | 0.00 | 0.00 | 0.00 | 86 | 1014.8 |
| 20260904085459 | 81 | 132 | 3.5 | 3.5 | 0.00 | 0.00 | 0.00 | 86 | 1014.8 |
| 20260904084958 | 81 | 174 | 7.0 | 8.7 | 0.00 | 0.00 | 0.00 | 86 | 1014.9 |
| 20260904084454 | 81 | 114 | 4.3 | 7.0 | 0.00 | 0.00 | 0.00 | 86 | 1014.8 |
| 20260904083950 | 81 | 177 | 6.1 | 7.0 | 0.00 | 0.00 | 0.00 | 86 | 1014.7 |
| 20260904083446 | 81 | 199 | 3.5 | 3.5 | 0.00 | 0.00 | 0.00 | 86 | 1014.8 |
| 20260904082942 | 81 | 168 | 4.3 | 7.0 | 0.00 | 0.00 | 0.00 | 86 | 1014.7 |
| 20260904082437 | 81 | 183 | 4.3 | 6.1 | 0.00 | 0.00 | 0.00 | 86 | 1014.7 |
| 20260904081931 | 81 | 176 | 3.5 | 3.5 | 0.00 | 0.00 | 0.00 | 86 | 1014.7 |
| 20260904081427 | 81 | 174 | 9.6 | 11.3 | 0.00 | 0.00 | 0.00 | 86 | 1014.7 |
| 20260904080923 | 81 | 146 | 7.8 | 8.7 | 0.00 | 0.00 | 0.00 | 86 | 1014.8 |
| 20260904080418 | 81 | 129 | 7.8 | 8.7 | 0.00 | 0.00 | 0.00 | 86 | 1014.8 |
| 20260904075914 | 81 | 174 | 1.7 | 1.7 | 0.00 | 0.00 | 0.00 | 85 | 1014.6 |
| 20260904075410 | 81 | 141 | 3.5 | 3.5 | 0.00 | 0.00 | 0.00 | 85 | 1014.7 |
| 20260904074908 | 81 | 130 | 3.5 | 3.5 | 0.00 | 0.00 | 0.00 | 85 | 1014.6 |
| 20260904074403 | 81 | 184 | 6.1 | 7.8 | 0.00 | 0.00 | 0.00 | 85 | 1014.8 |
| 20260904073859 | 81 | 174 | 10.4 | 12.2 | 0.00 | 0.00 | 0.00 | 85 | 1014.6 |
| 20260904073355 | 81 | 177 | 5.2 | 7.8 | 0.00 | 0.00 | 0.00 | 85 | 1014.7 |
| 20260904072850 | 81 | 165 | 4.3 | 5.2 | 0.00 | 0.00 | 0.00 | 85 | 1014.6 |
| 20260904072345 | 81 | 134 | 6.1 | 8.7 | 0.00 | 0.00 | 0.00 | 85 | 1014.9 |
| 20260904071841 | 81 | 181 | 5.2 | 7.0 | 0.00 | 0.00 | 0.00 | 84 | 1014.7 |
| 20260904071335 | 81 | 160 | 5.2 | 7.8 | 0.00 | 0.00 | 0.00 | 84 | 1015.0 |
| 20260904070825 | 81 | 163 | 5.2 | 6.1 | 0.00 | 0.00 | 0.00 | 84 | 1015.1 |
| 20260904070323 | 81 | 167 | 4.3 | 7.0 | 0.00 | 0.00 | 0.00 | 84 | 1015.1 |
| 20260904065818 | 81 | 133 | 3.5 | 5.2 | 0.00 | 0.00 | 0.00 | 84 | 1015.3 |
| 20260904065314 | 81 | 151 | 3.5 | 5.2 | 0.00 | 0.00 | 0.00 | 84 | 1015.3 |
| 20260904064809 | 81 | 133 | 5.2 | 7.0 | 0.00 | 0.00 | 0.00 | 84 | 1015.2 |
| 20260904064305 | 81 | 169 | 5.2 | 7.8 | 0.00 | 0.00 | 0.00 | 84 | 1015.1 |
| 20260904063801 | 81 | 166 | 3.5 | 5.2 | 0.00 | 0.00 | 0.00 | 84 | 1015.2 |
| 20260904063257 | 81 | 159 | 5.2 | 6.1 | 0.00 | 0.00 | 0.00 | 84 | 1014.9 |
| 20260904062752 | 81 | 192 | 1.7 | 1.7 | 0.00 | 0.00 | 0.00 | 84 | 1015.1 |
| 20260904062248 | 81 | 192 | 5.2 | 7.0 | 0.00 | 0.00 | 0.00 | 84 | 1015.0 |
| 20260904061743 | 81 | 105 | 2.6 | 2.6 | 0.00 | 0.00 | 0.00 | 83 | 1015.0 |
| 20260904061239 | 81 | 123 | 5.2 | 7.0 | 0.00 | 0.00 | 0.00 | 84 | 1015.1 |
| 20260904060736 | 81 | 171 | 3.5 | 3.5 | 0.00 | 0.00 | 0.00 | 83 | 1014.9 |
| 20260904060231 | 81 | 135 | 1.7 | 2.6 | 0.00 | 0.00 | 0.00 | 83 | 1015.1 |
| 20260904055726 | 81 | 131 | 7.8 | 7.8 | 0.00 | 0.00 | 0.00 | 84 | 1015.1 |
| 20260904055220 | 80 | 143 | 5.2 | 7.0 | 0.00 | 0.00 | 0.00 | 84 | 1015.4 |
| 20260904054716 | 80 | 118 | 4.3 | 6.1 | 0.00 | 0.00 | 0.00 | 83 | 1015.2 |
| 20260904054212 | 81 | 125 | 7.0 | 7.8 | 0.00 | 0.00 | 0.00 | 83 | 1015.1 |
| 20260904053707 | 81 | 115 | 1.7 | 1.7 | 0.00 | 0.00 | 0.00 | 83 | 1015.1 |
| 20260904053202 | 81 | 84 | 6.1 | 7.8 | 0.00 | 0.00 | 0.00 | 83 | 1015.2 |
| 20260904052658 | 80 | 120 | 5.2 | 7.0 | 0.00 | 0.00 | 0.00 | 83 | 1015.2 |
| 20260904052154 | 80 | 131 | 4.3 | 6.1 | 0.00 | 0.00 | 0.00 | 83 | 1015.0 |
| 20260904051650 | 80 | 154 | 6.1 | 7.8 | 0.00 | 0.00 | 0.00 | 83 | 1014.9 |
| 20260904051145 | 80 | 140 | 5.2 | 7.0 | 0.00 | 0.00 | 0.00 | 83 | 1014.9 |
| 20260904050640 | 80 | 145 | 7.0 | 8.7 | 0.00 | 0.00 | 0.00 | 83 | 1014.9 |
| 20260904050136 | 80 | 130 | 4.3 | 8.7 | 0.00 | 0.00 | 0.00 | 83 | 1014.9 |
| 20260904045630 | 80 | 138 | 5.2 | 6.1 | 0.00 | 0.00 | 0.00 | 83 | 1015.0 |
| 20260904045125 | 80 | 82 | 3.5 | 5.2 | 0.00 | 0.00 | 0.00 | 83 | 1015.0 |
| 20260904044621 | 80 | 159 | 5.2 | 8.7 | 0.00 | 0.00 | 0.00 | 83 | 1015.1 |
| 20260904044117 | 80 | 119 | 5.2 | 6.1 | 0.00 | 0.00 | 0.00 | 83 | 1014.9 |
| 20260904043614 | 80 | 108 | 7.8 | 8.7 | 0.00 | 0.00 | 0.00 | 83 | 1015.0 |
| 20260904043109 | 80 | 78 | 2.6 | 3.5 | 0.00 | 0.00 | 0.00 | 82 | 1015.0 |
| 20260904042605 | 81 | 149 | 4.3 | 7.0 | 0.00 | 0.00 | 0.00 | 82 | 1015.0 |
| 20260904042100 | 81 | 139 | 3.5 | 6.1 | 0.00 | 0.00 | 0.00 | 82 | 1015.0 |
| 20260904041556 | 81 | 126 | 4.3 | 5.2 | 0.00 | 0.00 | 0.00 | 82 | 1015.0 |
| 20260904041052 | 81 | 131 | 3.5 | 3.5 | 0.00 | 0.00 | 0.00 | 82 | 1015.0 |
| 20260904040552 | 81 | 109 | 3.5 | 3.5 | 0.00 | 0.00 | 0.00 | 82 | 1014.9 |
| 20260904040049 | 81 | 94 | 6.1 | 9.6 | 0.00 | 0.00 | 0.00 | 81 | 1014.9 |
| 20260904035549 | 81 | 166 | 2.6 | 5.2 | 0.00 | 0.00 | 0.00 | 81 | 1014.9 |
| 20260904035043 | 81 | 101 | 4.3 | 6.1 | 0.00 | 0.00 | 0.00 | 81 | 1014.7 |
| 20260904034538 | 81 | 118 | 5.2 | 7.0 | 0.00 | 0.00 | 0.00 | 81 | 1015.0 |
| 20260904034033 | 81 | 121 | 4.3 | 5.2 | 0.00 | 0.00 | 0.00 | 80 | 1014.7 |
| 20260904033529 | 81 | 113 | 5.2 | 7.8 | 0.00 | 0.00 | 0.00 | 80 | 1014.9 |
| 20260904033027 | 81 | 127 | 5.2 | 7.0 | 0.00 | 0.00 | 0.00 | 79 | 1014.9 |
| 20260904032522 | 81 | 125 | 6.1 | 7.8 | 0.00 | 0.00 | 0.00 | 79 | 1014.6 |
| 20260904032020 | 81 | 122 | 9.6 | 9.6 | 0.00 | 0.00 | 0.00 | 79 | 1014.7 |
| 20260904031515 | 81 | 120 | 7.8 | 9.6 | 0.00 | 0.00 | 0.00 | 79 | 1014.8 |
| 20260904031011 | 82 | 119 | 8.7 | 12.2 | 0.00 | 0.00 | 0.00 | 78 | 1014.7 |
| 20260904030507 | 82 | 94 | 7.8 | 7.8 | 0.00 | 0.00 | 0.00 | 78 | 1014.6 |
| 20260904030002 | 82 | 187 | 8.7 | 11.3 | 0.00 | 0.00 | 0.00 | 77 | 1014.5 |
| 20260904025458 | 82 | 82 | 5.2 | 7.0 | 0.00 | 0.00 | 0.00 | 77 | 1014.6 |
| 20260904024958 | 82 | 107 | 12.2 | 13.9 | 0.00 | 0.00 | 0.00 | 76 | 1014.6 |